Location: Unspecified
(44.4377°N, 88.0525°W)
Time: 17:15:24
(UTC-05:00)

Resurs 1-4 Rocket - Visible Passes

Search period start: 28 June 2016 00:00
Search period end: 08 July 2016 00:00
Orbit: 801 x 813 km, 98.4° (Epoch: 28 June)

Date Brightness Start Highest point End Pass type
(mag) Time Alt. Az. Time Alt. Az. Time Alt. Az.
28 Jun 4.4 02:28:22 10° NE 02:31:40 17° E 02:34:58 10° SE visible
28 Jun 2.2 04:06:44 10° N 04:12:01 69° WNW 04:17:16 10° SSW visible
29 Jun 2.3 03:42:10 10° NNE 03:47:31 75° ESE 03:52:47 10° S visible
30 Jun 3.0 03:17:47 10° NNE 03:22:54 45° E 03:27:57 10° S visible
01 Jul 3.7 02:53:40 10° NE 02:58:12 28° E 03:02:42 10° SSE visible
01 Jul 2.8 04:33:12 10° N 04:38:10 41° WNW 04:43:04 10° SW visible
02 Jul 4.3 02:29:58 10° NE 02:33:25 17° E 02:36:49 10° SE visible
02 Jul 2.2 04:08:27 10° N 04:13:44 66° WNW 04:18:57 10° SSW visible
03 Jul 2.2 03:43:53 10° NNE 03:49:13 78° ESE 03:54:27 10° S visible
04 Jul 2.9 03:19:29 10° NNE 03:24:37 47° E 03:29:35 11° S visible
05 Jul 3.7 02:55:20 10° NE 02:59:55 29° E 03:04:29 10° SSE visible
05 Jul 2.8 04:34:57 10° N 04:39:51 39° WNW 04:44:43 10° SW visible
06 Jul 4.3 02:31:35 10° NE 02:35:09 18° E 02:38:40 10° SE visible
06 Jul 2.3 04:10:11 10° N 04:15:26 63° WNW 04:20:38 10° SSW visible
07 Jul 4.7 02:09:27 10° ENE 02:10:16 10° E 02:11:04 10° E visible
07 Jul 2.2 03:45:35 10° NNE 03:50:56 81° ESE 03:56:02 11° SSW visible
